Weather History for KJYG - April, 2013

Change the Weather History Date:

Sunday, April 14, 2013

  Actual Average Record
Temperature  
Mean Temperature 40 °F -  
Max Temperature 44 °F 54 °F 86 °F (2003)
Min Temperature 35 °F 35 °F 20 °F (1983)
Degree Days  
Heating Degree Days 26    
Moisture  
Dew Point 31 °F    
Average Humidity 77    
Maximum Humidity 87    
Minimum Humidity 65    
Precipitation  
Precipitation 0.03 in - - ()
Sea Level Pressure  
Sea Level Pressure 29.60 in    
Wind  
Wind Speed 16 mph (East)    
Max Wind Speed 25 mph    
Max Gust Speed 30 mph    
Visibility 8 miles    
Events Rain , Snow    
Averages and records for this station are not official NWS values.
T = Trace of Precipitation, MM = Missing Value Source: NWS Daily Summary

Daily Weather History Graph

Daily Weather History Graph

Search for Another Location

Airport or City:

Trip Planner

Search our weather history database for the weather conditions in past years. The results will help you decide how hot, cold, wet, or windy it might be!

Date:

Astronomy

Apr. 14, 2013 Rise Set
Actual Time 6:36 AM CDT 8:01 PM CDT
Civil Twilight 6:06 AM CDT 8:31 PM CDT
Nautical Twilight 5:30 AM CDT 9:07 PM CDT
Astronomical Twilight 4:51 AM CDT 9:46 PM CDT
Moon 9:07 AM CDT (4/14) No Moon Set
Length of Visible Light 14h 25m
Length of Day
13h 25m
Waxing Crescent, 17% of the Moon is Illuminated
Apr 14
Waxing Crescent
Apr 18
First Quarter
Apr 25
Full
May 2
Last Quarter
May 9
New

Hourly Weather History & Observations

Time (CDT) Temp. Windchill Dew Point Humidity Pressure Visibility Wind Dir Wind Speed Gust Speed Precip Events Conditions
12:15 AM 35.6 °F 26.2 °F 26.6 °F 70% 29.87 in 10.0 mi ENE 15.0 mph - N/A   Overcast
12:34 AM 35.6 °F 26.2 °F 26.6 °F 70% 29.86 in 10.0 mi ENE 15.0 mph - N/A   Overcast
12:55 AM 35.6 °F 27.5 °F 26.6 °F 70% 29.87 in 10.0 mi East 11.5 mph - N/A   Overcast
1:15 AM 35.6 °F 27.5 °F 26.6 °F 70% 29.86 in 7.0 mi East 11.5 mph - N/A Snow Light Snow
1:34 AM 35.6 °F 26.2 °F 26.6 °F 70% 29.84 in 5.0 mi ENE 15.0 mph - N/A Snow Light Snow
1:55 AM 35.6 °F 26.2 °F 26.6 °F 70% 29.83 in 10.0 mi ENE 15.0 mph - N/A   Overcast
2:15 AM 35.6 °F 26.2 °F 26.6 °F 70% 29.84 in 10.0 mi ENE 15.0 mph - N/A   Overcast
2:34 AM 35.6 °F 27.1 °F 26.6 °F 70% 29.83 in 10.0 mi East 12.7 mph - N/A   Overcast
2:55 AM 35.6 °F 28.0 °F 26.6 °F 70% 29.83 in 10.0 mi East 10.4 mph 16.1 mph N/A   Overcast
3:15 AM 35.6 °F 27.1 °F 26.6 °F 70% 29.82 in 5.0 mi East 12.7 mph - N/A Snow Light Snow
3:35 AM 35.6 °F 26.6 °F 28.4 °F 75% 29.81 in 7.0 mi East 13.8 mph 19.6 mph 0.03 in   Overcast
3:55 AM 35.6 °F 26.2 °F 28.4 °F 75% 29.80 in 10.0 mi East 15.0 mph - 0.03 in   Overcast
4:15 AM 35.6 °F 27.5 °F 26.6 °F 70% 29.79 in 10.0 mi East 11.5 mph - N/A   Overcast
4:35 AM 35.6 °F 25.9 °F 28.4 °F 75% 29.78 in 10.0 mi East 16.1 mph 21.9 mph N/A   Overcast
4:55 AM 35.6 °F 25.9 °F 28.4 °F 75% 29.77 in 10.0 mi East 16.1 mph 21.9 mph N/A   Overcast
5:15 AM 35.6 °F 24.8 °F 28.4 °F 75% 29.75 in 10.0 mi East 19.6 mph - N/A   Overcast
5:35 AM 35.6 °F 24.2 °F 28.4 °F 75% 29.73 in 10.0 mi ENE 21.9 mph - N/A   Overcast
5:55 AM 35.6 °F 25.5 °F 28.4 °F 75% 29.74 in 10.0 mi ENE 17.3 mph 24.2 mph N/A   Overcast
6:15 AM 35.6 °F 24.8 °F 28.4 °F 75% 29.72 in 10.0 mi East 19.6 mph 25.3 mph N/A   Overcast
6:35 AM 35.6 °F 24.0 °F 28.4 °F 75% 29.71 in 10.0 mi East 23.0 mph 26.5 mph N/A   Overcast
6:55 AM 35.6 °F 24.5 °F 28.4 °F 75% 29.70 in 7.0 mi ENE 20.7 mph 25.3 mph N/A   Overcast
7:14 AM 35.6 °F 24.0 °F 28.4 °F 75% 29.69 in 10.0 mi ENE 23.0 mph - N/A   Overcast
7:33 AM 35.6 °F 23.4 °F 28.4 °F 75% 29.68 in 10.0 mi ENE 25.3 mph 28.8 mph N/A   Overcast
7:55 AM 35.6 °F 23.7 °F 28.4 °F 75% 29.67 in 10.0 mi ENE 24.2 mph 29.9 mph N/A   Overcast
8:14 AM 35.6 °F 24.2 °F 28.4 °F 75% 29.66 in 10.0 mi East 21.9 mph 28.8 mph N/A   Overcast
8:35 AM 35.6 °F 24.0 °F 30.2 °F 81% 29.66 in 7.0 mi East 23.0 mph 29.9 mph N/A   Overcast
8:55 AM 35.6 °F 24.8 °F 30.2 °F 81% 29.65 in 10.0 mi East 19.6 mph 28.8 mph N/A   Overcast
9:15 AM 35.6 °F 24.8 °F 30.2 °F 81% 29.63 in 3.0 mi East 19.6 mph - N/A   Haze
9:35 AM 35.6 °F 24.5 °F 30.2 °F 81% 29.60 in 3.0 mi East 20.7 mph 27.6 mph N/A Snow Light Snow
9:55 AM 35.6 °F 24.2 °F 30.2 °F 81% 29.59 in 3.0 mi East 21.9 mph 28.8 mph N/A Snow Light Snow
10:14 AM 35.6 °F 25.5 °F 30.2 °F 81% 29.58 in 3.0 mi East 17.3 mph 27.6 mph N/A Snow Light Snow
10:35 AM 35.6 °F 25.2 °F 30.2 °F 81% 29.59 in 7.0 mi East 18.4 mph 21.9 mph N/A Snow Light Snow
10:55 AM 37.4 °F 27.2 °F 32.0 °F 81% 29.58 in 10.0 mi East 19.6 mph 26.5 mph N/A Snow Light Snow
11:15 AM 37.4 °F 27.5 °F 30.2 °F 75% 29.58 in 10.0 mi East 18.4 mph 26.5 mph N/A   Overcast
11:35 AM 37.4 °F 27.8 °F 32.0 °F 81% 29.57 in 10.0 mi East 17.3 mph 24.2 mph N/A   Overcast
11:54 AM 37.4 °F 27.2 °F 32.0 °F 81% 29.56 in 10.0 mi East 19.6 mph 24.2 mph N/A   Overcast
12:15 PM 37.4 °F 26.9 °F 32.0 °F 81% 29.54 in 10.0 mi East 20.7 mph 26.5 mph N/A   Overcast
12:34 PM 37.4 °F 27.5 °F 33.8 °F 87% 29.53 in 10.0 mi East 18.4 mph 25.3 mph N/A   Overcast
12:55 PM 39.2 °F 30.5 °F 33.8 °F 81% 29.53 in 10.0 mi East 16.1 mph 23.0 mph N/A   Overcast
1:15 PM 39.2 °F 30.2 °F 33.8 °F 81% 29.51 in 10.0 mi East 17.3 mph 21.9 mph N/A   Overcast
1:34 PM 39.2 °F 30.8 °F 33.8 °F 81% 29.50 in 10.0 mi East 15.0 mph 20.7 mph N/A   Overcast
1:55 PM 39.2 °F 30.5 °F 33.8 °F 81% 29.49 in 10.0 mi East 16.1 mph - N/A   Overcast
2:15 PM 39.2 °F 31.2 °F 33.8 °F 81% 29.47 in 10.0 mi East 13.8 mph 23.0 mph N/A   Overcast
2:34 PM 39.2 °F 30.2 °F 33.8 °F 81% 29.47 in 10.0 mi East 17.3 mph - N/A   Overcast
3:15 PM 39.2 °F 30.5 °F 35.6 °F 87% 29.44 in 2.0 mi East 16.1 mph 20.7 mph N/A   Light Drizzle
3:35 PM 39.2 °F 29.8 °F 35.6 °F 87% 29.43 in 3.0 mi East 18.4 mph 23.0 mph N/A Rain Light Rain
3:55 PM 39.2 °F 30.5 °F 35.6 °F 87% 29.42 in 4.0 mi East 16.1 mph 25.3 mph N/A   Haze
4:15 PM 39.2 °F 30.8 °F 35.6 °F 87% 29.42 in 3.0 mi East 15.0 mph 20.7 mph N/A   Haze
4:35 PM 39.2 °F 30.2 °F 35.6 °F 87% 29.41 in 5.0 mi East 17.3 mph - N/A Rain Rain
4:55 PM 41.0 °F 32.2 °F 35.6 °F 81% 29.38 in 5.0 mi ENE 18.4 mph - N/A   Haze
5:15 PM 41.0 °F 33.5 °F 35.6 °F 81% 29.39 in 5.0 mi ENE 13.8 mph - N/A   Haze
5:35 PM 41.0 °F 33.9 °F 35.6 °F 81% 29.39 in 4.0 mi East 12.7 mph - N/A   Haze
5:54 PM 41.0 °F 33.1 °F 37.4 °F 87% 29.37 in 3.0 mi ENE 15.0 mph - N/A   Overcast
6:15 PM 41.0 °F 34.7 °F 37.4 °F 87% 29.39 in 4.0 mi East 10.4 mph - N/A   Overcast
6:35 PM 42.8 °F - 37.4 °F 81% 29.41 in 4.0 mi Calm Calm - N/A   Haze
6:55 PM 44.6 °F - 39.2 °F 81% 29.41 in 4.0 mi Calm Calm - N/A   Haze
7:15 PM 44.6 °F 38.8 °F 39.2 °F 81% 29.43 in 3.0 mi WSW 11.5 mph 17.3 mph N/A   Mostly Cloudy
7:35 PM 42.8 °F 34.3 °F 37.4 °F 81% 29.45 in 5.0 mi SW 19.6 mph - N/A   Haze
7:55 PM 41.0 °F 31.9 °F 33.8 °F 76% 29.46 in 10.0 mi WSW 19.6 mph 26.5 mph N/A   Scattered Clouds
8:15 PM 41.0 °F 31.6 °F 33.8 °F 76% 29.48 in 10.0 mi WSW 20.7 mph 27.6 mph N/A   Clear
8:35 PM 41.0 °F 32.5 °F 33.8 °F 76% 29.49 in 10.0 mi WSW 17.3 mph 23.0 mph N/A   Clear
8:54 PM 41.0 °F 33.1 °F 32.0 °F 70% 29.49 in 10.0 mi WSW 15.0 mph 23.0 mph N/A   Clear
9:15 PM 41.0 °F 33.5 °F 32.0 °F 70% 29.51 in 10.0 mi WSW 13.8 mph 17.3 mph N/A   Clear
9:35 PM 41.0 °F 31.4 °F 30.2 °F 65% 29.51 in 10.0 mi SW 21.9 mph 27.6 mph N/A   Clear
9:55 PM 39.2 °F 29.6 °F 30.2 °F 70% 29.53 in 10.0 mi SW 19.6 mph - N/A   Clear
10:14 PM 39.2 °F 30.2 °F 30.2 °F 70% 29.53 in 10.0 mi SW 17.3 mph 23.0 mph N/A   Clear
10:35 PM 39.2 °F 31.6 °F 28.4 °F 65% 29.54 in 10.0 mi SW 12.7 mph 19.6 mph N/A   Clear
10:55 PM 39.2 °F 29.8 °F 28.4 °F 65% 29.53 in 10.0 mi SW 18.4 mph 24.2 mph N/A   Clear
11:15 PM 39.2 °F 32.0 °F 28.4 °F 65% 29.54 in 10.0 mi SW 11.5 mph - N/A   Clear
11:35 PM 39.2 °F 31.2 °F 28.4 °F 65% 29.54 in 10.0 mi SW 13.8 mph 17.3 mph N/A   Clear
11:55 PM 39.2 °F 31.6 °F 28.4 °F 65% 29.53 in 10.0 mi SW 12.7 mph - N/A   Clear